Change the Weather History Date:

Friday, February 1, 2013

  Actual Average Record
Temperature  
Mean Temperature 44 °F -  
Max Temperature 64 °F 56 °F 77 °F (2003)
Min Temperature 24 °F 30 °F -11 °F (1951)
Degree Days  
Heating Degree Days 21    
Moisture  
Dew Point 17 °F    
Average Humidity 40    
Maximum Humidity 86    
Minimum Humidity 13    
Precipitation  
Precipitation 0.00 in - - ()
Sea Level Pressure  
Sea Level Pressure 30.17 in    
Wind  
Wind Speed 3 mph (SSW)    
Max Wind Speed 20 mph    
Max Gust Speed 24 mph    
Visibility 10 miles    
Events      
Averages and records for this station are not official NWS values.
T = Trace of Precipitation, MM = Missing Value Source: NWS Daily Summary

Daily Weather History Graph

Daily Weather History Graph

Search for Another Location

Airport or City:

Trip Planner

Search our weather history database for the weather conditions in past years. The results will help you decide how hot, cold, wet, or windy it might be!

Date:

Astronomy

Feb. 01, 2013 Rise Set
Actual Time 6:47 AM MST 5:26 PM MST
Civil Twilight 6:21 AM MST 5:51 PM MST
Nautical Twilight 5:52 AM MST 6:21 PM MST
Astronomical Twilight 5:23 AM MST 6:50 PM MST
Moon 11:11 PM MST (2/1) 9:44 AM MST (2/1)
Length of Visible Light 11h 30m
Length of Day
10h 38m
Waning Gibbous, 69% of the Moon is Illuminated
Feb 1
Waning Gibbous
Feb 3
Last Quarter
Feb 10
New
Feb 17
First Quarter
Feb 25
Full

Hourly Weather History & Observations

Time (MST) Temp. Windchill Dew Point Humidity Pressure Visibility Wind Dir Wind Speed Gust Speed Precip Events Conditions
12:15 AM 32.0 °F - 17.6 °F 55% 30.24 in 10.0 mi Calm Calm - N/A   Clear
12:35 AM 32.0 °F - 17.6 °F 55% 30.24 in 10.0 mi Calm Calm - N/A   Clear
12:55 AM 32.0 °F - 17.6 °F 55% 30.24 in 10.0 mi Calm Calm - N/A   Clear
1:15 AM 30.2 °F - 15.8 °F 55% 30.24 in 10.0 mi Calm Calm - N/A   Clear
1:35 AM 28.4 °F - 15.8 °F 59% 30.23 in 10.0 mi Calm Calm - N/A   Clear
1:55 AM 28.4 °F - 15.8 °F 59% 30.24 in 10.0 mi Calm Calm - N/A   Clear
2:15 AM 28.4 °F - 15.8 °F 59% 30.24 in 10.0 mi Calm Calm - N/A   Clear
2:55 AM 32.0 °F - 17.6 °F 55% 30.25 in 10.0 mi Calm Calm - N/A   Clear
3:15 AM 32.0 °F - 19.4 °F 60% 30.24 in 10.0 mi Calm Calm - N/A   Clear
3:35 AM 30.2 °F - 19.4 °F 64% 30.25 in 10.0 mi Calm Calm - N/A   Clear
3:55 AM 28.4 °F - 19.4 °F 69% 30.24 in 10.0 mi Calm Calm - N/A   Clear
5:50 AM 26.6 °F - 21.2 °F 80% 30.24 in 10.0 mi Calm Calm - N/A   Clear
6:50 AM 24.8 °F - 21.2 °F 86% 30.25 in 10.0 mi Calm Calm - N/A   Clear
7:50 AM 32.0 °F 25.6 °F 24.8 °F 75% 30.26 in 10.0 mi ENE 6.9 mph - N/A   Clear
8:50 AM 35.6 °F 30.7 °F 24.8 °F 65% 30.25 in 10.0 mi East 5.8 mph - N/A   Clear
9:50 AM 44.6 °F 39.7 °F 23.0 °F 43% 30.25 in 10.0 mi SE 9.2 mph - N/A   Clear
10:50 AM 53.6 °F - 19.4 °F 26% 30.22 in 10.0 mi SSE 15.0 mph 21.9 mph N/A   Clear
11:50 AM 59.0 °F - 17.6 °F 20% 30.19 in 10.0 mi South 19.6 mph 24.2 mph N/A   Clear
12:50 PM 60.8 °F - 15.8 °F 17% 30.15 in 10.0 mi South 16.1 mph 24.2 mph N/A   Clear
1:50 PM 62.6 °F - 15.8 °F 16% 30.11 in 10.0 mi South 13.8 mph 21.9 mph N/A   Clear
2:50 PM 64.4 °F - 14.0 °F 14% 30.10 in 10.0 mi SSW 15.0 mph 19.6 mph N/A   Clear
3:50 PM 64.4 °F - 12.2 °F 13% 30.09 in 10.0 mi SW 13.8 mph 17.3 mph N/A   Clear
4:50 PM 62.6 °F - 14.0 °F 15% 30.09 in 10.0 mi SW 8.1 mph - N/A   Clear
5:15 PM 59.0 °F - 14.0 °F 17% 30.10 in 10.0 mi SW 5.8 mph - N/A   Clear
5:35 PM 55.4 °F - 14.0 °F 20% 30.10 in 10.0 mi SW 8.1 mph - N/A   Clear
5:45 PM 53.6 °F - 14.0 °F 21% 30.10 in 10.0 mi Calm Calm - N/A   Clear
5:55 PM 53.6 °F - 14.0 °F 21% 30.10 in 10.0 mi Calm Calm - N/A   Clear
6:15 PM 50.0 °F - 14.0 °F 24% 30.10 in 10.0 mi Calm Calm - N/A   Clear
6:35 PM 48.2 °F - 14.0 °F 25% 30.11 in 10.0 mi SW 10.4 mph - N/A   Clear
7:15 PM 44.6 °F - 14.0 °F 29% 30.12 in 10.0 mi Calm Calm - N/A   Clear
7:35 PM 44.6 °F 42.2 °F 14.0 °F 29% 30.13 in 10.0 mi SSW 4.6 mph - N/A   Clear
7:55 PM 42.8 °F 37.5 °F 14.0 °F 31% 30.13 in 10.0 mi SW 9.2 mph - N/A   Clear
8:15 PM 42.8 °F - 15.8 °F 34% 30.13 in 10.0 mi Calm Calm - N/A   Clear
8:55 PM 41.0 °F 37.1 °F 15.8 °F 36% 30.14 in 10.0 mi SSW 5.8 mph - N/A   Clear
9:15 PM 44.6 °F 39.7 °F 15.8 °F 31% 30.14 in 10.0 mi SSW 9.2 mph - N/A   Clear
9:35 PM 44.6 °F 39.7 °F 17.6 °F 34% 30.15 in 10.0 mi SW 9.2 mph - N/A   Clear
9:55 PM 42.8 °F 41.1 °F 15.8 °F 34% 30.15 in 10.0 mi SW 3.5 mph - N/A   Clear
10:15 PM 41.0 °F - 15.8 °F 36% 30.14 in 10.0 mi Calm Calm - N/A   Clear
10:35 PM 41.0 °F - 15.8 °F 36% 30.15 in 10.0 mi Calm Calm - N/A   Clear
10:55 PM 39.2 °F - 15.8 °F 39% 30.15 in 10.0 mi Calm Calm - N/A   Clear
11:15 PM 37.4 °F - 15.8 °F 41% 30.15 in 10.0 mi Calm Calm - N/A   Clear
11:35 PM 37.4 °F 32.1 °F 15.8 °F 41% 30.15 in 10.0 mi WSW 6.9 mph - N/A   Clear
11:55 PM 35.6 °F 28.6 °F 15.8 °F 44% 30.15 in 10.0 mi WSW 9.2 mph - N/A   Clear